EW3692 Weather Reports


Display with metric or nautical units.
time (UTC)temp
F
wind
direction
speed
MPH
gust
MPH
rain 1hr
in
rain 24hr
in
rain mn
in
humidity
%
barometer
mb
20260505151604 62 169 4.0 12.0 0.00 0.00 0.00 60 1016.7
20260505124538 57 15 0.0 0.0 0.00 0.00 0.00 71 1016.4
20260505123047 55 15 0.0 0.0 0.00 0.00 0.00 74 1016.4
20260505121534 51 15 0.0 0.0 0.00 0.00 0.00 77 1016.4
20260505120043 47 15 0.0 0.0 0.00 0.00 0.00 82 1016.3
20260505114532 47 15 0.0 0.0 0.00 0.00 0.00 82 1016.1
20260505113031 46 15 0.0 0.0 0.00 0.00 0.00 80 1016.2
20260505111533 46 15 0.0 0.0 0.00 0.00 0.00 80 1015.9
20260505101530 46 15 0.0 0.0 0.00 0.00 0.00 81 1015.8
20260505100030 46 15 0.0 0.0 0.00 0.00 0.00 81 1015.7
20260505094523 47 15 0.0 2.0 0.00 0.00 0.00 80 1015.9
20260505093020 48 15 0.0 0.0 0.00 0.00 0.00 79 1015.8
20260505091520 48 15 0.0 0.0 0.00 0.00 0.00 78 1016.0
20260505090016 49 15 0.0 2.0 0.00 0.00 0.00 77 1016.0
20260505084515 51 15 0.0 0.0 0.00 0.00 0.00 76 1015.8
20260505083021 51 15 0.0 0.0 0.00 0.00 0.00 75 1015.8
20260505081515 50 15 0.0 0.0 0.00 0.00 0.00 78 1016.0
20260505080023 49 15 0.0 0.0 0.00 0.00 0.00 78 1015.9
20260505074511 49 15 0.0 0.0 0.00 0.00 0.00 79 1016.0
20260505073022 50 15 0.0 0.0 0.00 0.00 0.00 78 1015.9
20260505071507 51 15 0.0 0.0 0.00 0.00 0.00 78 1016.0
20260505070006 51 15 0.0 0.0 0.00 0.00 0.00 77 1016.0
20260505064505 52 15 0.0 0.0 0.00 0.00 0.00 77 1015.9
20260505063004 52 15 0.0 3.0 0.00 0.00 0.00 77 1016.0
20260505061503 51 13 0.0 1.0 0.00 0.00 0.00 77 1016.0
20260505060001 51 65 0.0 3.0 0.00 0.00 0.00 78 1016.2
20260505054606 52 64 0.0 0.0 0.00 0.00 0.00 77 1016.3
20260505053059 52 64 0.0 0.0 0.00 0.00 0.00 75 1016.4
20260505051557 53 65 0.0 1.0 0.00 0.00 0.00 75 1016.4
20260505041600 52 82 0.0 0.0 0.00 0.00 0.00 79 1016.5
20260505040050 53 82 0.0 0.0 0.00 0.00 0.00 79 1016.5
20260505034549 53 82 0.0 2.0 0.00 0.00 0.00 79 1016.5
20260505033049 54 82 0.0 4.0 0.00 0.00 0.00 77 1016.7
20260505031548 55 157 0.0 3.0 0.00 0.00 0.00 76 1016.7
20260505030105 54 157 0.0 6.0 0.00 0.00 0.00 76 1016.9
20260505024550 53 90 0.0 0.0 0.00 0.00 0.00 78 1016.9
20260505023046 54 90 0.0 0.0 0.00 0.00 0.00 78 1016.9
20260505021547 54 90 0.0 0.0 0.00 0.00 0.00 77 1016.9
20260505020047 55 90 0.0 0.0 0.00 0.00 0.00 76 1016.9
20260505014603 56 90 0.0 0.0 0.00 0.00 0.00 76 1016.8
20260505013051 57 90 0.0 0.0 0.00 0.00 0.00 76 1016.6
20260505011546 58 188 0.0 0.0 0.00 0.00 0.00 74 1016.5
20260505010053 59 188 0.0 1.0 0.00 0.00 0.00 75 1016.3
20260505004549 60 188 1.0 5.0 0.00 0.00 0.00 73 1016.2
20260505003054 61 130 0.0 0.0 0.00 0.00 0.00 73 1016.2
20260505001545 62 130 0.0 3.0 0.00 0.00 0.00 72 1016.0
20260505000041 63 130 2.0 5.0 0.00 0.00 0.00 69 1016.0
20260504234543 63 187 0.0 5.0 0.00 0.00 0.00 69 1015.8
20260504233042 64 194 0.0 2.0 0.00 0.00 0.00 70 1015.7
20260504231540 64 117 1.0 4.0 0.00 0.00 0.00 68 1015.8
20260504230040 65 170 2.0 6.0 0.00 0.00 0.00 66 1015.6
20260504224538 65 153 1.0 4.0 0.00 0.00 0.00 64 1015.7
20260504223055 66 116 1.0 5.0 0.00 0.00 0.00 63 1015.8
20260504221537 67 150 1.0 5.0 0.00 0.00 0.00 61 1015.8
20260504220036 67 113 2.0 6.0 0.00 0.00 0.00 59 1015.8
20260504214536 67 178 3.0 8.0 0.00 0.00 0.00 58 1015.8
20260504213036 68 179 3.0 8.0 0.00 0.00 0.00 57 1015.8
20260504211551 68 182 1.0 7.0 0.00 0.00 0.00 57 1016.0
20260504210036 68 148 3.0 9.0 0.00 0.00 0.00 54 1016.1
20260504204533 69 161 2.0 6.0 0.00 0.00 0.00 52 1016.1
20260504203031 70 183 2.0 9.0 0.00 0.00 0.00 51 1016.2
20260504201530 69 178 4.0 10.0 0.00 0.00 0.00 48 1016.4
20260504200027 70 133 2.0 8.0 0.00 0.00 0.00 46 1016.5
20260504194525 71 153 1.0 9.0 0.00 0.00 0.00 50 1016.6
20260504193024 71 171 1.0 7.0 0.00 0.00 0.00 57 1016.7
20260504191525 70 173 3.0 8.0 0.00 0.00 0.00 56 1017.0
20260504190020 70 171 2.0 9.0 0.00 0.00 0.00 54 1017.2
20260504184526 71 151 3.0 8.0 0.00 0.00 0.00 54 1017.3
20260504183018 71 172 2.0 8.0 0.00 0.00 0.00 57 1017.6
20260504181515 71 185 2.0 7.0 0.00 0.00 0.00 52 1017.7
20260504180012 70 178 0.0 7.0 0.00 0.00 0.00 53 1017.8
20260504174510 69 147 2.0 7.0 0.00 0.00 0.00 49 1018.0
20260504173008 69 175 1.0 6.0 0.00 0.00 0.00 57 1018.1
20260504171505 69 153 1.0 3.0 0.00 0.00 0.00 54 1018.3